Find Starlink 36314

NORAD ID: 68741 Int'l Des: 2026-082 Owner: SPXS Country: US Constellation: starlink operational
LEOCIRCULARRETROGRADE

現在のビュー

3D地球を読み込み中...

Starlink 36314について

説明を読み込み中...

次回通過

Passes for default location (London). Set your location on the main map for personalized predictions.

高度履歴

Loading altitude history...

軌道要素

1 68741U 26082P 26150.57186242 .00078121 00000-0 14219-2 0 9991
2 68741 97.2836 14.2460 0001541 98.1558 261.9868 15.49228182 6993
Epoch: May 30, 2026 • Age: 17 hours

現在のステータス

高度 435.1 km
速度 7.65 km/s
衛星直下点 -40.72°S, 33.46°E
打ち上げ日 Apr 15, 2026
運用期間 0.1 years
タイプ internet

技術仕様

分類 Payload
質量 575.00 kg
乾燥質量 530.00 kg
総質量 575.00 kg
長さ 0.30 m
直径 4.10 m
スパン 29.00 m
形状 Box + pan
製造者 SPXS
バスタイプ Starlink V2MO
フェーズステータス In Orbit
所有者/国 SPXS/US

Most Searched